Regional Weather Roundup
Issued by NWS Newport/Morehead, NC

Home | Current Version | Previous Version | Text Only | Print | Product List | Glossary On
Versions: 1 2 3 4 5 6 7 8 9 10 11 12 13 14 15 16 17 18 19 20 21 22 23 24 25 26 27 28 29 30 31 32 33 34 35 36 37 38 39 40 41 42 43 44 45 46 47 48 49 50
000
ASUS42 KMHX 290822
RWRMHX
WEATHER ROUNDUP FOR EASTERN NORTH CAROLINA
NATIONAL WEATHER SERVICE NEWPORT/MOREHEAD CITY NC
300 AM EST MON DEC 29 2014

NOTE: "FAIR" INDICATES FEW OR NO CLOUDS BELOW 12,000 FEET
WITH NO SIGNIFICANT WEATHER AND/OR OBSTRUCTIONS TO VISIBILITY

NCZ015>017-031-032-045>047-102-103-290900-
NORTH COAST

CITY           SKY/WX    TMP DP  RH WIND       PRES   REMARKS
EDENTON        CLOUDY    56  56  99 NW3       30.06S FOG
ELIZABETH CITY FOG       59  55  88 SW3       30.06R VSB 1
KITTY HAWK     FOG       56  56 100 CALM      30.04S VSB 1/4
MANTEO         CLOUDY    57  57 100 CALM      30.05S

$$

NCZ045>047-081-094-103-104-290900-
CENTRAL COAST

CITY           SKY/WX    TMP DP  RH WIND       PRES   REMARKS
FRISCO         CLOUDY    58  58 100 NW6       30.05F
SWANQUARTER      N/A     57 N/A N/A S2        30.00F

$$

NCZ095-097-098-100-101-290900-
SOUTHERN COAST

CITY           SKY/WX    TMP DP  RH WIND       PRES   REMARKS
BEAUFORT       CLOUDY    60  59  96 CALM      30.05F
CEDAR ISLAND     N/A     57 N/A N/A W2        30.09S
JACKSONVILLE   CLOUDY    60  58  92 CALM      30.03F
PINEY ISLAND   CLOUDY    60  56  86 CALM      30.05S
WILMINGTON     CLOUDY    61  60  97 E5        30.03F


$$

NCZ011>013-027>030-043-044-078>080-089-090>093-098-290900-
COASTAL PLAIN

CITY           SKY/WX    TMP DP  RH WIND       PRES   REMARKS
AHOSKIE        LGT RAIN  54  54  98 N3        30.07R
CLINTON        CLOUDY    59  59 100 CALM      30.03F FOG
ELIZABETHTOWN  CLOUDY    60  60 100 CALM      30.03F
GOLDSBORO      FOG       57  57 100 NE2       30.02F VSB 3/4
GREENVILLE     FOG       55  55 100 CALM      30.07S VSB 1/4
HAVELOCK       CLOUDY    60  57  89 E3        30.06F
KENANSVILLE    FOG       58  58  98 CALM      30.04F VSB 3/4
KINSTON        FOG       58  58 100 CALM      30.05F VSB 1/2
NEW BERN       FOG       61  58  90 CALM      30.05F VSB 1/2
RICHLANDS      CLOUDY    59  57  94 CALM      30.04F VSB 1/2
ROCKY MOUNT    FOG       54  53  97 NE3       30.05S VSB 3/4
WASHINGTON     CLOUDY    58  58  98 CALM      30.06S VSB 1
WHITEVILLE     CLOUDY    61  60  95 CALM      30.02F

$$

AMZ130-135-150-152-154-156-158-170-250-252-270-ANZ085-086-088-633-658-670-290900-
MARINE OBSERVATIONS

STATION/POSITION TIME  TEMP    WIND        PRES    WAVE   SWELL
                       AIR SEA DIR/SP/G            HT/PER HT/PER
                 (UTC) (F)     (DEG/KT/KT) (MB)    (FT/S) (FT/S)
CHESAPEAKE LIGHT 0800   50      40/ 13/ 14 1018.3
64 E VA BEACH    0800   55 53  330/  4/  4 1016.9    2/13   2/13
DUCK             0800   56 50  250/  4/  4 1016.5
2 E DUCK         0800      49                N/A     2/13   2/13
10 NE DUCK       0800      50                N/A     2/13   2/13
OREGON INLET     0800   56 53   CALM  /  1 1017.4
13E OREGON INLT  0800      63                N/A     2/13   2/13
HATTERAS CG      0800   57 55  310/  4/  5 1018.0
DIAMOND BUOY     0800   64                 1017.4    3/13
17 S OCRACOKE    NOT AVBL
CAPE LOOKOUT     0800   58     330/  4/  5 1017.4
BEAUFORT LAB     0800   58 56  360/  3/  3 1016.5
30 SE NEW RIVER  0800   60 60  280/  4/  6 1017.7    3/ 5   2/ 5
5 SE WRIGHTSVLE  NOT AVBL
225 S CAPE HAT   0726   73 74  230/ 14/ 16 1019.8    4/14   3/14
41 SE CHARLESTON 0800   72 73  220/ 14/ 16 1016.7    3/13   2/13

$$


USA.gov is the U.S. government's official web portal to all federal, state and local government web resources and services.